STARLINK-3346 (50821 NORAD) Tracking and Keplerian Element Data

This shows tracking and keplerian element data for the satellite.

Feedback or suggestion? Click here.




ElementValue
Catalog50821
NameSTARLINK-3346
Epoch Orbit386
Epoch Day23.25001157
Epoch Year2022
RAAN118.111
Inclination53.2177
Eccentricity0.0001119
Argument of Perigee57.5693
Mean Anonmoly345.9337
Mean Motion15.7464503
Decay Rate-0.00817754
L11 50821U 22001U 22023.25001157 -.00817754 00000+0 -60228-2 0 9994
L22 50821 53.2177 118.1110 0001119 57.5693 345.9337 15.74645030 3869

Live tracking and technical data element details for STARLINK-3346 (NORAD 50821). STARLINK-3346 can be tracked NOW for your location showing map with azimuth and elevation plus other details from your city location.

Track the satellite on the map from your city or location and see movement details for azimuth, elevation, latitude, longitude, range, height, and movement on the map or in text.







IsCatalogInMostPopularTable: catalog: 50821, numindb: 1
Update: records affected: 1



GetName: 50821 STARLINK-3346

Hit Count: updated at: Mon, 24 Jan 2022 00:17:02 GMT